Date String (YYYY-MM-DD hh:mm:ss) UTC,Instrument flags,absolute air pressure of the measurement (hPa),sample flow rate (lpm),inlet stack bypass flow (lpm),air temperature of the measurement (°C),ambient temperature measured by the external sensor (°C),aerosol sample conditioner tube jacket temperature (°C),OPC LED temperature (°C),internal box temperature (°C),relative humidity of the measurement (%),span deviation,mass concentration of particles derived from Lorenz-Mie calculation of OPC scattering (μg/m³),mass concentration of particles derived from Lorenz-Mie calculation of OPC scattering (μg/m³),mass concentration of particles derived from Lorenz-Mie calculation of OPC scattering (μg/m³)
DateTimeUTC,F1_M11,P_M11,Q1_M11,Q2_M11,T1_M11,T2_M11,T3_M11,T4_M11,T5_M11,U1_M11,ZSPAN_M11,X0_M11,X2_M11,X1_M11
2024-02-03 22:00:00,SystemResetWarning,0815.0,5.00,000.00,021.0,020.3,000.0,029.4,022.7,23.6,0000.0,0000.96,0000.65,0000.55
2024-02-03 22:01:00,SystemResetWarning,0815.0,4.98,000.00,021.0,020.3,000.0,029.4,022.7,23.6,0000.0,0000.90,0000.61,0000.51
2024-02-03 22:02:00,SystemResetWarning,0815.0,5.02,000.00,021.0,020.3,000.0,029.4,022.7,23.6,0000.0,0000.82,0000.56,0000.47
2024-02-03 22:03:00,SystemResetWarning,0815.1,5.00,000.00,021.0,020.3,000.0,029.4,022.7,23.5,0000.0,0000.77,0000.52,0000.43
2024-02-03 22:04:00,SystemResetWarning,0815.1,4.99,000.00,021.0,020.3,000.0,029.4,022.7,23.5,0000.0,0000.75,0000.49,0000.41
2024-02-03 22:05:00,SystemResetWarning,0815.1,4.99,000.00,021.0,020.3,000.0,029.4,022.7,23.5,0000.0,0000.67,0000.44,0000.37
2024-02-03 22:06:00,SystemResetWarning,0815.1,5.01,000.00,021.0,020.3,000.0,029.4,022.7,23.5,0000.0,0000.65,0000.41,0000.35
2024-02-03 22:07:00,SystemResetWarning,0815.1,5.00,000.00,020.9,020.3,000.0,029.4,022.7,23.5,0000.0,0000.55,0000.38,0000.33
2024-02-03 22:08:00,SystemResetWarning,0815.1,5.00,000.00,020.9,020.3,000.0,029.4,022.7,23.5,0000.0,0000.47,0000.37,0000.33
2024-02-03 22:09:00,SystemResetWarning,0815.1,5.00,000.00,020.9,020.3,000.0,029.4,022.7,23.5,0000.0,0000.48,0000.36,0000.32
2024-02-03 22:10:00,SystemResetWarning,0815.1,5.00,000.00,020.9,020.3,000.0,029.3,022.6,23.5,0000.0,0000.47,0000.35,0000.31
2024-02-03 22:11:00,SystemResetWarning,0815.1,4.99,000.00,020.9,020.3,000.0,029.3,022.7,23.5,0000.0,0000.42,0000.32,0000.29
2024-02-03 22:12:00,SystemResetWarning,0815.2,4.99,000.00,020.9,020.3,000.0,029.3,022.6,23.5,0000.0,0000.40,0000.31,0000.28
2024-02-03 22:13:00,SystemResetWarning,0815.2,5.00,000.00,020.9,020.3,000.0,029.3,022.6,23.5,0000.0,0000.38,0000.29,0000.28
2024-02-03 22:14:00,SystemResetWarning,0815.2,5.00,000.00,020.9,020.2,000.0,029.3,022.6,23.5,0000.0,0000.37,0000.29,0000.27
2024-02-03 22:15:00,SystemResetWarning,0815.2,5.00,000.00,020.9,020.2,000.0,029.3,022.6,23.4,0000.0,0000.35,0000.28,0000.27
2024-02-03 22:16:00,SystemResetWarning,0815.2,5.00,000.00,020.9,020.2,000.0,029.3,022.6,23.4,0000.0,0000.35,0000.27,0000.26
2024-02-03 22:17:00,SystemResetWarning,0815.3,5.00,000.00,020.9,020.2,000.0,029.3,022.6,23.5,0000.0,0000.35,0000.27,0000.25
2024-02-03 22:18:00,SystemResetWarning,0815.2,5.00,000.00,020.9,020.2,000.0,029.3,022.6,23.4,0000.0,0000.35,0000.26,0000.24
2024-02-03 22:19:00,SystemResetWarning,0815.3,5.00,000.00,020.9,020.2,000.0,029.3,022.6,23.4,0000.0,0000.34,0000.25,0000.23
2024-02-03 22:20:00,SystemResetWarning,0815.3,5.00,000.00,020.9,020.2,000.0,029.3,022.6,23.4,0000.0,0000.33,0000.24,0000.23
2024-02-03 22:21:00,SystemResetWarning,0815.3,5.00,000.00,020.9,020.2,000.0,029.3,022.6,23.4,0000.0,0000.32,0000.24,0000.23
2024-02-03 22:22:00,SystemResetWarning,0815.3,4.99,000.00,020.9,020.2,000.0,029.3,022.6,23.5,0000.0,0000.32,0000.25,0000.24
2024-02-03 22:23:00,SystemResetWarning,0815.3,4.99,000.00,020.9,020.2,000.0,029.3,022.6,23.4,0000.0,0000.32,0000.25,0000.24
2024-02-03 22:24:00,SystemResetWarning,0815.3,5.00,000.00,020.9,020.2,000.0,029.3,022.6,23.4,0000.0,0000.33,0000.25,0000.24
2024-02-03 22:25:00,SystemResetWarning,0815.4,5.00,000.00,020.9,020.2,000.0,029.3,022.6,23.5,0000.0,0000.33,0000.25,0000.24
2024-02-03 22:26:00,SystemResetWarning,0815.4,5.00,000.00,020.9,020.2,000.0,029.3,022.6,23.5,0000.0,0000.34,0000.25,0000.24
2024-02-03 22:27:00,SystemResetWarning,0815.4,5.00,000.00,020.9,020.2,000.0,029.3,022.6,23.5,0000.0,0000.33,0000.25,0000.24
2024-02-03 22:28:00,SystemResetWarning,0815.5,5.01,000.00,020.9,020.2,000.0,029.3,022.6,23.5,0000.0,0000.33,0000.25,0000.24
2024-02-03 22:29:00,SystemResetWarning,0815.5,5.00,000.00,020.9,020.2,000.0,029.3,022.6,23.5,0000.0,0000.39,0000.26,0000.24
2024-02-03 22:30:00,SystemResetWarning,0815.5,5.01,000.00,020.9,020.2,000.0,029.3,022.6,23.5,0000.0,0000.38,0000.26,0000.23
2024-02-03 22:31:00,SystemResetWarning,0815.5,5.01,000.00,020.9,020.2,000.0,029.3,022.6,23.5,0000.0,0000.38,0000.25,0000.21
2024-02-03 22:32:00,SystemResetWarning,0815.5,5.00,000.00,020.9,020.2,000.0,029.3,022.6,23.5,0000.0,0000.35,0000.23,0000.19
2024-02-03 22:33:00,SystemResetWarning,0815.5,5.00,000.00,020.9,020.2,000.0,029.3,022.6,23.5,0000.0,0000.32,0000.21,0000.17
2024-02-03 22:34:00,SystemResetWarning,0815.5,5.00,000.00,020.9,020.2,000.0,029.3,022.6,23.6,0000.0,0000.31,0000.19,0000.16
2024-02-03 22:35:00,SystemResetWarning,0815.4,5.00,000.00,020.9,020.2,000.0,029.3,022.6,24.5,0000.0,0000.29,0000.18,0000.15
2024-02-03 22:36:00,SystemResetWarning,0815.5,5.00,000.00,020.9,020.2,000.0,029.3,022.6,25.1,0000.0,0000.27,0000.17,0000.14
2024-02-03 22:37:00,SystemResetWarning,0815.5,5.00,000.00,020.9,020.2,000.0,029.3,022.6,24.1,0000.0,0000.25,0000.15,0000.12
2024-02-03 22:38:00,SystemResetWarning,0815.6,5.00,000.00,020.9,020.2,000.0,029.3,022.6,23.8,0000.0,0000.24,0000.14,0000.11
2024-02-03 22:39:00,SystemResetWarning,0815.6,5.00,000.00,020.9,020.2,000.0,029.3,022.6,23.8,0000.0,0000.23,0000.13,0000.10
2024-02-03 22:40:00,SystemResetWarning,0815.6,5.00,000.00,020.9,020.2,000.0,029.3,022.6,23.7,0000.0,0000.14,0000.10,0000.10
2024-02-03 22:41:00,SystemResetWarning,0815.6,4.99,000.00,020.9,020.2,000.0,029.3,022.6,23.7,0000.0,0000.13,0000.10,0000.09
2024-02-03 22:42:00,SystemResetWarning,0815.6,5.00,000.00,020.9,020.2,000.0,029.3,022.6,23.7,0000.0,0000.11,0000.09,0000.09
2024-02-03 22:43:00,SystemResetWarning,0815.6,5.00,000.00,020.9,020.2,000.0,029.3,022.6,23.7,0000.0,0000.11,0000.09,0000.09
2024-02-03 22:44:00,SystemResetWarning,0815.6,5.00,000.00,020.9,020.2,000.0,029.3,022.6,23.7,0000.0,0000.11,0000.09,0000.09
2024-02-03 22:45:00,SystemResetWarning,0815.6,5.01,000.00,020.9,020.2,000.0,029.3,022.6,23.7,0000.0,0000.11,0000.09,0000.09
2024-02-03 22:46:00,SystemResetWarning,0815.5,5.00,000.00,020.9,020.2,000.0,029.3,022.5,23.7,0000.0,0000.14,0000.10,0000.09
2024-02-03 22:47:00,SystemResetWarning,0815.3,5.00,000.00,020.8,020.2,000.0,029.3,022.5,23.7,0000.0,0000.17,0000.12,0000.10
2024-02-03 22:48:00,SystemResetWarning,0815.3,5.00,000.00,020.8,020.2,000.0,029.2,022.5,23.7,0000.0,0000.18,0000.13,0000.11
2024-02-03 22:49:00,SystemResetWarning,0815.3,5.00,000.00,020.8,020.1,000.0,029.2,022.5,23.8,0000.0,0000.20,0000.14,0000.13
2024-02-03 22:50:00,SystemResetWarning,0815.4,5.00,000.00,020.8,020.1,000.0,029.2,022.5,23.8,0000.0,0000.23,0000.16,0000.14
2024-02-03 22:51:00,SystemResetWarning,0815.6,5.00,000.00,020.8,020.0,000.0,029.2,022.4,23.9,0000.0,0000.26,0000.18,0000.16
2024-02-03 22:52:00,SystemResetWarning,0815.6,4.99,000.00,020.8,020.0,000.0,029.2,022.4,23.9,0000.0,0000.27,0000.19,0000.17
2024-02-03 22:53:00,SystemResetWarning,0815.6,5.00,000.00,020.7,020.0,000.0,029.2,022.4,24.0,0000.0,0000.27,0000.19,0000.17
2024-02-03 22:54:00,SystemResetWarning,0815.6,5.00,000.00,020.7,020.0,000.0,029.2,022.4,24.1,0000.0,0000.27,0000.19,0000.17
2024-02-03 22:55:00,SystemResetWarning,0815.6,5.00,000.00,020.7,019.9,000.0,029.2,022.4,24.0,0000.0,0000.26,0000.19,0000.17
2024-02-03 22:56:00,SystemResetWarning,0815.6,5.01,000.00,020.7,019.9,000.0,029.2,022.3,24.1,0000.0,0000.26,0000.19,0000.16
2024-02-03 22:57:00,SystemResetWarning,0815.6,5.00,000.00,020.7,019.9,000.0,029.1,022.3,24.1,0000.0,0000.24,0000.18,0000.16
2024-02-03 22:58:00,SystemResetWarning,0815.6,5.00,000.00,020.7,019.9,000.0,029.1,022.3,24.2,0000.0,0000.23,0000.17,0000.15
2024-02-03 22:59:00,SystemResetWarning,0815.6,5.00,000.00,020.6,019.9,000.0,029.1,022.3,24.1,0000.0,0000.20,0000.15,0000.13
